This is the latest recevied weather packets stored in our database for station/object K1RFS. If no packets are shown the sender has not sent any weather packets the latest 10 day(s).
| Time | Temp. | Humidity | Pressure | Rain* | Wind** | Luminosity | Snow |
|---|---|---|---|---|---|---|---|
| 1777910869 | 18.89° C | 35% | 995.2 hPa | 0 mm | - | 54 W/m² | - |
| 1777910564 | 18.89° C | 35% | 995.2 hPa | 0 mm | - | 54 W/m² | - |
| 1777910262 | 18.89° C | 35% | 995.2 hPa | 0 mm | - | 55 W/m² | - |
| 1777909959 | 18.89° C | 35% | 995 hPa | 0 mm | - | 54 W/m² | - |
| 1777909656 | 18.89° C | 35% | 995.1 hPa | 0 mm | - | 54 W/m² | - |
| 1777909353 | 18.89° C | 34% | 995.2 hPa | 0 mm | - | 55 W/m² | - |
| 1777909051 | 18.89° C | 35% | 995.3 hPa | 0 mm | - | 59 W/m² | - |
| 1777908748 | 18.89° C | 36% | 995.2 hPa | 0 mm | - | 60 W/m² | - |
| 1777908445 | 18.33° C | 36% | 995.4 hPa | 0 mm | - | 61 W/m² | - |
| 1777908142 | 18.33° C | 37% | 995.4 hPa | 0 mm | - | 60 W/m² | - |
| 1777907838 | 17.78° C | 37% | 995.3 hPa | 0 mm | - | 58 W/m² | - |
| 1777907534 | 17.22° C | 39% | 995.6 hPa | 0 mm | - | 54 W/m² | - |
| 1777907230 | 17.22° C | 40% | 995.6 hPa | 0 mm | - | 49 W/m² | - |
| 1777906927 | 16.67° C | 40% | 995.7 hPa | 0 mm | - | 45 W/m² | - |
| 1777906625 | 16.67° C | 40% | 995.6 hPa | 0 mm | - | 43 W/m² | - |
| 1777906320 | 16.67° C | 41% | 995.6 hPa | 0 mm | - | 44 W/m² | - |
| 1777906017 | 16.11° C | 41% | 995.7 hPa | 0 mm | - | 44 W/m² | - |
| 1777905713 | 16.11° C | 42% | 995.7 hPa | 0 mm | - | 44 W/m² | - |
| 1777905410 | 16.11° C | 40% | 995.8 hPa | 0 mm | - | 44 W/m² | - |
| 1777905108 | 16.11° C | 41% | 995.6 hPa | 0 mm | - | 44 W/m² | - |
| 1777904805 | 16.11° C | 42% | 995.7 hPa | 0 mm | - | 43 W/m² | - |
| 1777904502 | 16.11° C | 42% | 995.8 hPa | 0 mm | - | 45 W/m² | - |
| 1777904198 | 15.56° C | 42% | 995.7 hPa | 0 mm | - | 48 W/m² | - |
| 1777903896 | 15.56° C | 42% | 995.4 hPa | 0 mm | - | 49 W/m² | - |
| 1777903593 | 15.56° C | 43% | 995.6 hPa | 0 mm | - | 53 W/m² | - |
* Rain latest hour (hover to see other rain measurements)
** Current wind speed in m/s (hover to see current wind gust speed)